GW0883 Weather Reports


Display with metric or nautical units.
time (UTC)temp
F
wind
direction
speed
MPH
gust
MPH
rain 1hr
in
rain 24hr
in
rain mn
in
humidity
%
barometer
mb
20260508124139 53 203 3.0 7.0 0.00 0.00 0.00 57 1013.1
20260508123235 52 294 2.0 5.0 0.00 0.00 0.00 58 1012.8
20260508122236 52 259 2.0 5.0 0.00 0.00 0.00 58 1012.9
20260508121238 51 217 1.0 3.0 0.00 0.00 0.00 58 1012.8
20260508120336 50 263 4.0 6.0 0.00 0.00 0.00 58 1012.8
20260508115337 50 216 2.0 5.0 0.00 0.00 0.00 57 1012.8
20260508114437 49 222 5.0 10.0 0.00 0.00 0.00 58 1012.7
20260508112535 47 180 0.0 1.0 0.00 0.00 0.00 58 1012.7
20260508110537 44 225 0.0 0.0 0.00 0.00 0.00 58 1012.4
20260508105536 43 225 0.0 0.0 0.00 0.00 0.00 58 1012.4
20260508103537 40 247 0.0 0.0 0.00 0.00 0.00 56 1012.1
20260508102538 38 247 0.0 0.0 0.00 0.00 0.00 55 1011.9
20260508101538 37 247 0.0 0.0 0.00 0.00 0.00 55 1011.7
20260508095735 39 247 0.0 0.0 0.00 0.00 0.00 55 1011.4
20260508094739 39 247 0.0 0.0 0.00 0.00 0.00 54 1011.3
20260508093836 39 247 0.0 0.0 0.00 0.00 0.00 55 1011.3
20260508092838 39 247 0.0 0.0 0.00 0.00 0.00 54 1011.4
20260508091838 39 247 0.0 1.0 0.00 0.01 0.00 54 1011.2
20260508085937 39 247 0.0 0.0 0.00 0.01 0.00 53 1011.2
20260508084937 39 247 0.0 0.0 0.00 0.01 0.00 52 1011.2
20260508082037 39 247 0.0 2.0 0.00 0.02 0.00 51 1011.0
20260508081137 39 247 0.0 1.0 0.00 0.02 0.00 52 1010.9
20260508080137 39 247 1.0 1.0 0.00 0.02 0.00 51 1010.8
20260508075139 39 247 0.0 1.0 0.00 0.02 0.00 51 1010.5
20260508074237 39 247 0.0 1.0 0.00 0.02 0.00 50 1010.5
20260508073235 39 247 0.0 0.0 0.00 0.02 0.00 50 1010.2
20260508072237 39 247 0.0 1.0 0.00 0.03 0.00 49 1010.1
20260508070335 39 292 0.0 2.0 0.00 0.03 0.00 49 1009.9
20260508064337 39 292 0.0 0.0 0.00 0.03 0.00 48 1009.7
20260508063436 39 292 0.0 1.0 0.00 0.03 0.00 47 1009.9
20260508062438 39 292 0.0 1.0 0.00 0.03 0.00 47 1009.9
20260508061438 39 292 0.0 0.0 0.00 0.03 0.00 47 1010.1
20260508060436 39 292 0.0 0.0 0.00 0.03 0.00 46 1010.1
20260508055436 39 292 0.0 0.0 0.00 0.03 0.00 46 1010.1
20260508054437 40 292 0.0 0.0 0.00 0.03 0.00 46 1010.2
20260508053536 40 292 0.0 0.0 0.00 0.03 0.00 46 1010.4
20260508052634 40 292 0.0 0.0 0.00 0.03 0.00 46 1010.5
20260508051638 41 292 0.0 0.0 0.00 0.03 0.00 45 1010.6
20260508050735 41 292 0.0 0.0 0.00 0.03 0.00 44 1010.8
20260508044836 42 292 0.0 1.0 0.00 0.03 0.00 44 1010.7
20260508043837 42 292 0.0 1.0 0.00 0.03 0.00 44 1010.7
20260508042036 42 225 0.0 0.0 0.00 0.03 0.00 43 1010.9
20260508041036 43 225 0.0 0.0 0.00 0.03 0.00 43 1010.8
20260508040135 43 225 0.0 1.0 0.00 0.03 0.00 43 1010.8
20260508035216 43 225 0.0 1.0 0.00 0.04 0.03 42 1010.8
20260508034215 44 225 0.0 0.0 0.00 0.04 0.03 42 1010.8
20260508033216 44 225 0.0 0.0 0.00 0.04 0.03 41 1010.8
20260508031315 44 225 0.0 0.0 0.00 0.04 0.03 42 1010.8
20260508031216 44 225 0.0 1.0 0.00 0.04 0.03 42 1010.9
20260508030217 45 225 0.0 2.0 0.00 0.04 0.03 42 1010.8
20260508025218 45 225 0.0 0.0 0.00 0.04 0.03 40 1010.8
20260508024216 45 225 0.0 0.0 0.00 0.04 0.03 40 1010.9
20260508021216 46 270 0.0 0.0 0.00 0.04 0.03 40 1010.9
20260508020217 46 270 0.0 0.0 0.00 0.04 0.03 39 1011.0
20260508015218 46 270 0.0 0.0 0.00 0.04 0.03 40 1011.0
20260508014315 47 270 0.0 0.0 0.00 0.04 0.03 39 1010.9
20260508013315 47 270 0.0 0.0 0.00 0.04 0.03 39 1010.8
20260508012332 48 270 0.0 0.0 0.00 0.04 0.03 39 1010.6
20260508005415 50 225 0.0 2.0 0.00 0.04 0.03 38 1010.2
20260508004415 50 270 0.0 0.0 0.00 0.04 0.03 38 1010.2
20260508003515 50 210 0.0 3.0 0.00 0.04 0.03 38 1009.8
20260508002516 51 270 0.0 0.0 0.00 0.04 0.03 39 1009.9
20260508001615 52 270 1.0 2.0 0.00 0.04 0.03 39 1009.9
20260508000617 53 270 0.0 0.0 0.00 0.04 0.03 38 1009.9
20260507235715 54 225 0.0 0.0 0.00 0.04 0.03 39 1009.7
20260507234715 54 223 2.0 5.0 0.00 0.04 0.03 38 1009.7
20260507233716 55 243 2.0 4.0 0.00 0.04 0.03 39 1009.5
20260507232716 55 337 0.0 1.0 0.00 0.04 0.03 38 1009.4
20260507231716 56 248 2.0 5.0 0.00 0.04 0.03 39 1009.5
20260507225815 57 222 3.0 9.0 0.00 0.05 0.03 39 1009.3
20260507224815 58 260 5.0 8.0 0.00 0.06 0.03 39 1009.3
20260507223816 58 214 4.0 6.0 0.00 0.07 0.03 41 1009.1
20260507222815 59 210 0.0 1.0 0.00 0.07 0.03 41 1009.0
20260507221818 60 198 2.0 4.0 0.00 0.07 0.03 40 1008.8
20260507220914 60 225 1.0 4.0 0.00 0.07 0.03 41 1008.9
20260507215915 61 209 4.0 9.0 0.00 0.07 0.03 42 1008.6
20260507214917 61 209 4.0 7.0 0.00 0.08 0.03 43 1008.7
20260507214015 61 263 1.0 5.0 0.00 0.08 0.03 43 1008.6
20260507212016 61 269 5.0 7.0 0.00 0.08 0.03 43 1008.3
20260507211015 62 238 4.0 7.0 0.00 0.08 0.03 43 1008.3
20260507210015 62 47 2.0 4.0 0.00 0.08 0.03 45 1008.3
20260507205016 62 220 3.0 4.0 0.00 0.08 0.03 44 1008.4
20260507204017 62 259 4.0 8.0 0.00 0.08 0.03 45 1008.3
20260507202116 63 214 3.0 4.0 0.00 0.09 0.03 47 1008.1
20260507201116 63 288 2.0 6.0 0.00 0.09 0.03 47 1008.1
20260507200116 62 328 2.0 5.0 0.00 0.10 0.03 48 1008.1
20260507195115 62 259 3.0 6.0 0.00 0.10 0.03 49 1008.3
20260507194214 62 27 2.0 5.0 0.00 0.11 0.03 49 1008.2
20260507193216 62 255 4.0 8.0 0.00 0.11 0.03 50 1008.5
20260507192215 62 229 3.0 7.0 0.00 0.12 0.03 51 1008.4
20260507191314 62 357 3.0 5.0 0.00 0.13 0.03 52 1008.5
20260507190315 62 304 0.0 2.0 0.00 0.14 0.03 52 1008.7
20260507185315 62 226 4.0 7.0 0.00 0.15 0.03 52 1008.9
20260507184316 62 246 5.0 10.0 0.00 0.15 0.03 54 1008.9
20260507183317 61 100 3.0 5.0 0.00 0.16 0.03 55 1008.9
20260507181316 61 195 3.0 6.0 0.00 0.16 0.03 56 1009.4
20260507175415 60 114 2.0 4.0 0.00 0.16 0.03 57 1009.3
20260507174416 60 248 5.0 8.0 0.00 0.16 0.03 59 1009.5
20260507174315 60 201 2.0 7.0 0.00 0.16 0.03 58 1009.4
20260507172317 59 243 6.0 8.0 0.00 0.16 0.03 61 1009.3
20260507171315 60 288 3.0 7.0 0.00 0.16 0.03 61 1009.5
20260507170317 59 65 3.0 6.0 0.00 0.16 0.03 63 1009.6
20260507165415 60 21 2.0 4.0 0.00 0.16 0.03 64 1009.8
20260507164416 59 214 2.0 4.0 0.00 0.16 0.03 64 1009.7
20260507163415 59 310 1.0 3.0 0.00 0.16 0.03 65 1009.9
20260507162414 58 256 1.0 4.0 0.00 0.16 0.03 66 1010.0
20260507155416 58 258 5.0 8.0 0.00 0.16 0.03 69 1010.2
20260507154516 58 258 5.0 11.0 0.00 0.16 0.03 69 1010.2
20260507153417 58 191 1.0 3.0 0.00 0.16 0.03 70 1010.2
20260507150415 57 214 5.0 7.0 0.00 0.16 0.03 73 1010.6
20260507145514 58 297 3.0 4.0 0.00 0.16 0.03 74 1010.6
20260507144517 58 146 1.0 4.0 0.00 0.16 0.03 75 1010.7
20260507143515 57 240 2.0 6.0 0.00 0.16 0.03 76 1010.8
20260507142516 56 34 2.0 6.0 0.00 0.16 0.03 77 1010.8
20260507141516 56 273 2.0 4.0 0.00 0.16 0.03 77 1010.8
20260507140515 56 201 1.0 2.0 0.00 0.16 0.03 78 1010.9
20260507135516 56 244 5.0 7.0 0.00 0.16 0.03 79 1010.9
20260507134516 56 28 2.0 7.0 0.00 0.16 0.03 79 1010.6
20260507133515 56 240 2.0 4.0 0.00 0.16 0.03 80 1010.6
20260507132515 55 132 1.0 5.0 0.00 0.16 0.03 81 1010.8
20260507131517 55 325 1.0 3.0 0.00 0.16 0.03 81 1010.8
20260507130615 54 204 5.0 7.0 0.00 0.16 0.03 82 1010.8
20260507125714 54 229 1.0 4.0 0.00 0.16 0.03 82 1010.9